| time (UTC) | temp F | wind direction | speed knots | gust knots | rain 1hr in | rain 24hr in | rain mn in | humidity % | barometer mb |
| 20260506001803 | 29 | 0 | 0.0 | 0.0 | 0.00 | 0.00 | 0.00 | 87 | 1007.7 |
| 20260506000905 | 29 | 0 | 0.0 | 0.0 | 0.00 | 0.00 | 0.00 | 87 | 1007.7 |
| 20260506000025 | 29 | 0 | 0.0 | 0.0 | 0.00 | 0.00 | 0.00 | 86 | 1007.5 |
| 20260505235403 | 30 | 0 | 0.0 | 0.0 | 0.00 | 0.00 | 0.00 | 85 | 1007.4 |
| 20260505234503 | 30 | 247 | 0.0 | 1.7 | 0.00 | 0.00 | 0.00 | 85 | 1007.4 |
| 20260505233603 | 30 | 247 | 0.9 | 1.7 | 0.00 | 0.00 | 0.00 | 83 | 1007.5 |
| 20260505232705 | 31 | 0 | 0.0 | 0.0 | 0.00 | 0.00 | 0.00 | 81 | 1007.7 |
| 20260505231805 | 31 | 0 | 0.0 | 0.0 | 0.00 | 0.00 | 0.00 | 81 | 1007.5 |
| 20260505230903 | 32 | 247 | 0.0 | 1.7 | 0.00 | 0.00 | 0.00 | 78 | 1007.3 |
| 20260505230024 | 33 | 247 | 0.0 | 1.7 | 0.00 | 0.00 | 0.00 | 75 | 1007.5 |
| 20260505225403 | 34 | 247 | 1.7 | 1.7 | 0.00 | 0.00 | 0.00 | 75 | 1007.4 |
| 20260505224503 | 33 | 247 | 0.9 | 1.7 | 0.00 | 0.00 | 0.00 | 77 | 1007.2 |
| 20260505223603 | 33 | 247 | 0.9 | 1.7 | 0.00 | 0.00 | 0.00 | 79 | 1007.6 |
| 20260505222703 | 32 | 247 | 1.7 | 1.7 | 0.00 | 0.00 | 0.00 | 79 | 1007.2 |
| 20260505221803 | 32 | 247 | 0.0 | 1.7 | 0.00 | 0.00 | 0.00 | 80 | 1007.2 |
| 20260505220903 | 33 | 247 | 0.9 | 1.7 | 0.00 | 0.00 | 0.00 | 79 | 1007.3 |
| 20260505220003 | 34 | 247 | 0.0 | 3.5 | 0.00 | 0.00 | 0.00 | 74 | 1007.2 |
| 20260505215404 | 35 | 247 | 0.9 | 3.5 | 0.00 | 0.00 | 0.00 | 70 | 1007.0 |
| 20260505214503 | 36 | 247 | 1.7 | 3.5 | 0.00 | 0.00 | 0.00 | 69 | 1007.1 |
| 20260505213603 | 36 | 247 | 1.7 | 1.7 | 0.00 | 0.00 | 0.00 | 70 | 1006.8 |
| 20260505212703 | 37 | 247 | 0.9 | 3.5 | 0.00 | 0.00 | 0.00 | 67 | 1006.9 |
| 20260505211825 | 37 | 247 | 1.7 | 3.5 | 0.00 | 0.00 | 0.00 | 67 | 1006.9 |
| 20260505210925 | 37 | 245 | 1.7 | 3.5 | 0.00 | 0.00 | 0.00 | 67 | 1006.8 |
| 20260505210003 | 37 | 243 | 1.7 | 3.5 | 0.00 | 0.00 | 0.00 | 67 | 1006.5 |
| 20260505205403 | 38 | 242 | 1.7 | 3.5 | 0.00 | 0.00 | 0.00 | 65 | 1006.5 |
| 20260505204503 | 38 | 247 | 1.7 | 3.5 | 0.00 | 0.00 | 0.00 | 64 | 1006.6 |
| 20260505203604 | 38 | 241 | 1.7 | 3.5 | 0.00 | 0.00 | 0.00 | 63 | 1006.5 |
| 20260505202726 | 39 | 241 | 2.6 | 3.5 | 0.00 | 0.00 | 0.00 | 63 | 1006.3 |
| 20260505201805 | 39 | 236 | 1.7 | 5.2 | 0.00 | 0.00 | 0.00 | 64 | 1006.6 |
| 20260505200905 | 40 | 241 | 2.6 | 3.5 | 0.00 | 0.00 | 0.00 | 63 | 1006.1 |
| 20260505200004 | 40 | 236 | 3.5 | 3.5 | 0.00 | 0.00 | 0.00 | 61 | 1006.2 |
| 20260505195403 | 40 | 233 | 1.7 | 3.5 | 0.00 | 0.00 | 0.00 | 57 | 1006.2 |
| 20260505194503 | 41 | 254 | 1.7 | 3.5 | 0.00 | 0.00 | 0.00 | 56 | 1006.0 |
| 20260505193604 | 41 | 266 | 1.7 | 1.7 | 0.00 | 0.00 | 0.00 | 55 | 1006.2 |
| 20260505192724 | 42 | 265 | 0.9 | 3.5 | 0.00 | 0.00 | 0.00 | 55 | 1005.8 |
| 20260505191803 | 42 | 265 | 1.7 | 3.5 | 0.00 | 0.00 | 0.00 | 53 | 1005.8 |
| 20260505190903 | 42 | 270 | 1.7 | 3.5 | 0.00 | 0.00 | 0.00 | 53 | 1005.7 |
| 20260505190024 | 43 | 270 | 1.7 | 3.5 | 0.00 | 0.00 | 0.00 | 52 | 1005.6 |
| 20260505185425 | 43 | 266 | 1.7 | 3.5 | 0.00 | 0.00 | 0.00 | 51 | 1005.8 |
| 20260505184503 | 43 | 254 | 1.7 | 3.5 | 0.00 | 0.00 | 0.00 | 50 | 1005.7 |
| 20260505183625 | 44 | 273 | 2.6 | 3.5 | 0.00 | 0.00 | 0.00 | 51 | 1005.7 |
| 20260505182724 | 44 | 272 | 2.6 | 3.5 | 0.00 | 0.00 | 0.00 | 50 | 1005.4 |
| 20260505181803 | 44 | 280 | 2.6 | 5.2 | 0.00 | 0.00 | 0.00 | 49 | 1005.3 |
| 20260505180903 | 44 | 285 | 2.6 | 6.1 | 0.00 | 0.00 | 0.00 | 48 | 1005.4 |
| 20260505180004 | 45 | 288 | 3.5 | 5.2 | 0.00 | 0.00 | 0.00 | 48 | 1005.2 |
| 20260505175403 | 45 | 286 | 2.6 | 9.6 | 0.00 | 0.00 | 0.00 | 48 | 1005.3 |
| 20260505174504 | 46 | 284 | 1.7 | 6.1 | 0.00 | 0.00 | 0.00 | 48 | 1005.1 |
| 20260505173605 | 45 | 295 | 4.3 | 7.0 | 0.00 | 0.00 | 0.00 | 49 | 1005.2 |
| 20260505172724 | 45 | 302 | 2.6 | 11.3 | 0.00 | 0.00 | 0.00 | 49 | 1005.1 |
| 20260505171803 | 45 | 327 | 8.7 | 11.3 | 0.00 | 0.00 | 0.00 | 47 | 1005.1 |
| 20260505170903 | 45 | 324 | 5.2 | 12.2 | 0.00 | 0.00 | 0.00 | 48 | 1005.0 |
| 20260505170004 | 45 | 318 | 6.1 | 18.2 | 0.00 | 0.00 | 0.00 | 48 | 1005.1 |
| 20260505165403 | 46 | 341 | 3.5 | 5.2 | 0.00 | 0.00 | 0.00 | 44 | 1005.1 |
| 20260505164504 | 47 | 355 | 2.6 | 5.2 | 0.00 | 0.00 | 0.00 | 44 | 1004.7 |
| 20260505163603 | 47 | 331 | 3.5 | 6.1 | 0.00 | 0.00 | 0.00 | 42 | 1004.5 |
| 20260505162703 | 47 | 339 | 4.3 | 7.8 | 0.00 | 0.00 | 0.00 | 40 | 1004.5 |
| 20260505161805 | 48 | 338 | 4.3 | 7.8 | 0.00 | 0.00 | 0.00 | 38 | 1004.5 |
| 20260505160903 | 46 | 311 | 6.1 | 11.3 | 0.00 | 0.00 | 0.00 | 41 | 1004.6 |
| 20260505152703 | 48 | 298 | 2.6 | 6.1 | 0.00 | 0.00 | 0.00 | 36 | 1004.2 |
| 20260505151803 | 49 | 263 | 3.5 | 9.6 | 0.00 | 0.00 | 0.00 | 31 | 1004.0 |
| 20260505150903 | 49 | 284 | 7.0 | 9.6 | 0.00 | 0.00 | 0.00 | 32 | 1004.1 |
| 20260505124504 | 48 | 255 | 5.2 | 9.6 | 0.00 | 0.00 | 0.00 | 41 | 1003.7 |
| 20260505123603 | 49 | 263 | 1.7 | 9.6 | 0.00 | 0.00 | 0.00 | 43 | 1003.7 |
| 20260505122703 | 49 | 258 | 3.5 | 11.3 | 0.00 | 0.00 | 0.00 | 43 | 1003.8 |
| 20260505121803 | 47 | 250 | 4.3 | 13.0 | 0.00 | 0.00 | 0.00 | 50 | 1003.6 |
| 20260505120903 | 47 | 285 | 4.3 | 11.3 | 0.00 | 0.00 | 0.00 | 44 | 1003.8 |
| 20260505120004 | 47 | 298 | 3.5 | 17.4 | 0.00 | 0.00 | 0.00 | 38 | 1003.6 |
| 20260505115403 | 47 | 306 | 8.7 | 17.4 | 0.00 | 0.00 | 0.00 | 43 | 1003.9 |
| 20260505114503 | 46 | 310 | 3.5 | 13.0 | 0.00 | 0.00 | 0.00 | 43 | 1003.8 |
| 20260505113603 | 46 | 289 | 7.8 | 14.8 | 0.00 | 0.00 | 0.00 | 46 | 1003.5 |
| 20260505112703 | 47 | 268 | 6.1 | 9.6 | 0.00 | 0.00 | 0.00 | 49 | 1003.4 |
| 20260505111803 | 46 | 244 | 1.7 | 7.0 | 0.00 | 0.00 | 0.00 | 50 | 1003.4 |
| 20260505110903 | 45 | 260 | 3.5 | 11.3 | 0.00 | 0.00 | 0.00 | 50 | 1003.5 |
| 20260505101803 | 48 | 300 | 6.1 | 11.3 | 0.00 | 0.00 | 0.00 | 43 | 1003.3 |
| 20260505100903 | 48 | 309 | 2.6 | 9.6 | 0.00 | 0.00 | 0.00 | 44 | 1003.1 |
| 20260505100003 | 47 | 312 | 2.6 | 7.8 | 0.00 | 0.00 | 0.00 | 46 | 1003.0 |
| 20260505095424 | 46 | 301 | 2.6 | 11.3 | 0.00 | 0.00 | 0.00 | 49 | 1003.1 |
| 20260505094505 | 48 | 295 | 3.5 | 12.2 | 0.00 | 0.00 | 0.00 | 44 | 1002.9 |
| 20260505093603 | 48 | 311 | 6.1 | 11.3 | 0.00 | 0.00 | 0.00 | 42 | 1003.1 |
| 20260505092705 | 47 | 303 | 1.7 | 13.9 | 0.00 | 0.00 | 0.00 | 49 | 1003.1 |
| 20260505091803 | 46 | 290 | 3.5 | 12.2 | 0.00 | 0.00 | 0.00 | 47 | 1003.2 |
| 20260505090903 | 48 | 319 | 4.3 | 9.6 | 0.00 | 0.00 | 0.00 | 47 | 1003.0 |
| 20260505090005 | 46 | 316 | 7.0 | 9.6 | 0.00 | 0.00 | 0.00 | 48 | 1003.0 |
| 20260505085405 | 45 | 311 | 1.7 | 9.6 | 0.00 | 0.00 | 0.00 | 51 | 1002.9 |
| 20260505084505 | 45 | 324 | 3.5 | 7.0 | 0.00 | 0.00 | 0.00 | 52 | 1002.9 |
| 20260505083603 | 47 | 310 | 1.7 | 9.6 | 0.00 | 0.00 | 0.00 | 49 | 1003.0 |
| 20260505082705 | 44 | 270 | 5.2 | 9.6 | 0.00 | 0.00 | 0.00 | 52 | 1002.9 |
| 20260505081826 | 45 | 266 | 3.5 | 9.6 | 0.00 | 0.00 | 0.00 | 53 | 1002.7 |
| 20260505080906 | 44 | 297 | 5.2 | 7.8 | 0.00 | 0.00 | 0.00 | 56 | 1002.5 |
| 20260505080003 | 44 | 311 | 3.5 | 7.8 | 0.00 | 0.00 | 0.00 | 55 | 1002.6 |
| 20260505075426 | 45 | 322 | 3.5 | 9.6 | 0.00 | 0.00 | 0.00 | 55 | 1002.6 |
| 20260505074503 | 43 | 305 | 6.1 | 9.6 | 0.00 | 0.00 | 0.00 | 56 | 1002.6 |
| 20260505073605 | 43 | 303 | 4.3 | 9.6 | 0.00 | 0.00 | 0.00 | 59 | 1002.3 |
| 20260505072703 | 43 | 304 | 5.2 | 9.6 | 0.00 | 0.00 | 0.00 | 58 | 1002.5 |
| 20260505071805 | 42 | 307 | 3.5 | 7.0 | 0.00 | 0.00 | 0.00 | 59 | 1002.5 |
| 20260505070926 | 43 | 312 | 2.6 | 9.6 | 0.00 | 0.00 | 0.00 | 59 | 1002.2 |
| 20260505070003 | 42 | 303 | 6.1 | 9.6 | 0.00 | 0.00 | 0.00 | 58 | 1002.3 |
| 20260505065405 | 42 | 311 | 3.5 | 9.6 | 0.00 | 0.00 | 0.00 | 60 | 1002.3 |
| 20260505064508 | 42 | 304 | 7.0 | 12.2 | 0.00 | 0.00 | 0.00 | 58 | 1002.4 |
| 20260505063624 | 41 | 299 | 6.1 | 12.2 | 0.00 | 0.00 | 0.00 | 61 | 1002.0 |
| 20260505062705 | 41 | 306 | 6.1 | 9.6 | 0.00 | 0.00 | 0.00 | 61 | 1002.2 |
| 20260505061803 | 41 | 315 | 5.2 | 9.6 | 0.00 | 0.00 | 0.00 | 60 | 1002.3 |
| 20260505060903 | 40 | 309 | 4.3 | 9.6 | 0.00 | 0.00 | 0.00 | 61 | 1002.2 |
| 20260505060003 | 40 | 319 | 4.3 | 12.2 | 0.00 | 0.00 | 0.00 | 61 | 1002.0 |
| 20260505055424 | 40 | 310 | 5.2 | 12.2 | 0.00 | 0.00 | 0.00 | 61 | 1001.8 |
| 20260505054505 | 40 | 315 | 3.5 | 9.6 | 0.00 | 0.00 | 0.00 | 62 | 1001.9 |
| 20260505053605 | 40 | 305 | 4.3 | 12.2 | 0.00 | 0.00 | 0.00 | 62 | 1001.9 |
| 20260505052703 | 39 | 289 | 7.8 | 9.6 | 0.00 | 0.00 | 0.00 | 64 | 1001.9 |
| 20260505051803 | 39 | 290 | 3.5 | 9.6 | 0.00 | 0.00 | 0.00 | 68 | 1001.7 |
| 20260505050905 | 39 | 297 | 5.2 | 9.6 | 0.00 | 0.00 | 0.00 | 70 | 1001.8 |
| 20260505040903 | 37 | 276 | 3.5 | 7.8 | 0.00 | 0.00 | 0.00 | 87 | 1001.3 |
| 20260505040004 | 37 | 277 | 5.2 | 7.8 | 0.00 | 0.00 | 0.00 | 89 | 1001.1 |
| 20260505035407 | 37 | 275 | 3.5 | 7.0 | 0.00 | 0.00 | 0.00 | 90 | 1001.0 |
| 20260505034503 | 37 | 284 | 3.5 | 7.0 | 0.00 | 0.00 | 0.00 | 91 | 1001.0 |
| 20260505033603 | 36 | 285 | 2.6 | 7.0 | 0.00 | 0.00 | 0.00 | 91 | 1000.8 |
| 20260505032704 | 36 | 284 | 2.6 | 6.1 | 0.00 | 0.00 | 0.00 | 92 | 1000.7 |
| 20260505031803 | 36 | 285 | 3.5 | 6.1 | 0.00 | 0.00 | 0.00 | 92 | 1000.7 |
| 20260505030905 | 36 | 278 | 3.5 | 5.2 | 0.00 | 0.00 | 0.00 | 93 | 1000.6 |
| 20260505030003 | 36 | 277 | 1.7 | 6.1 | 0.00 | 0.00 | 0.00 | 92 | 1000.4 |
| 20260505025403 | 36 | 277 | 1.7 | 6.1 | 0.00 | 0.00 | 0.00 | 92 | 1000.4 |
| 20260505024526 | 36 | 282 | 1.7 | 3.5 | 0.00 | 0.00 | 0.00 | 92 | 1000.4 |
| 20260505023603 | 37 | 275 | 1.7 | 3.5 | 0.00 | 0.00 | 0.00 | 92 | 1000.1 |
| 20260505022703 | 37 | 286 | 2.6 | 3.5 | 0.00 | 0.00 | 0.00 | 92 | 1000.1 |
| 20260505021803 | 37 | 282 | 1.7 | 3.5 | 0.00 | 0.00 | 0.00 | 92 | 1000.1 |
| 20260505020903 | 37 | 281 | 1.7 | 6.1 | 0.00 | 0.00 | 0.00 | 91 | 999.9 |
| 20260505020026 | 37 | 302 | 3.5 | 9.6 | 0.00 | 0.00 | 0.00 | 92 | 1000.0 |
| 20260505015403 | 37 | 294 | 4.3 | 9.6 | 0.00 | 0.00 | 0.00 | 92 | 999.9 |
| 20260505014503 | 37 | 280 | 4.3 | 9.6 | 0.00 | 0.00 | 0.00 | 92 | 999.6 |
| 20260505013604 | 38 | 283 | 5.2 | 9.6 | 0.00 | 0.00 | 0.00 | 91 | 1000.0 |
| 20260505012703 | 38 | 296 | 3.5 | 7.0 | 0.00 | 0.00 | 0.00 | 90 | 999.7 |
| 20260505011803 | 38 | 279 | 3.5 | 7.0 | 0.00 | 0.00 | 0.00 | 90 | 999.7 |
| 20260505010904 | 39 | 286 | 3.5 | 9.6 | 0.00 | 0.00 | 0.00 | 89 | 999.6 |
| 20260505010003 | 39 | 302 | 2.6 | 9.6 | 0.00 | 0.00 | 0.00 | 89 | 999.6 |
| 20260505005424 | 39 | 302 | 5.2 | 9.6 | 0.00 | 0.00 | 0.00 | 88 | 999.4 |
| 20260505004524 | 39 | 309 | 2.6 | 9.6 | 0.00 | 0.00 | 0.00 | 88 | 999.4 |
| 20260505003603 | 40 | 302 | 5.2 | 13.0 | 0.00 | 0.00 | 0.00 | 87 | 999.3 |
| 20260505002703 | 40 | 305 | 7.0 | 13.9 | 0.00 | 0.00 | 0.00 | 87 | 999.5 |